[[{"header":{"parameterUnit":"m.s-1","parameterCategory":1,"la1":30.2991,"la2":30.254,"lo1":-89.0895,"lo2":-89.0444,"dy":0.0017,"dx":0.0017,"nx":28,"ny":28,"refTime":"2023-09-23T03:00:00:Z","depth":0,"parameterNumber":2,"parameterNumberName":"U-component_of_WINDS"},"data":[0,0,0,0,0,0,0,0,0,0,0,0,0,0,0,0,0,0,0,0,0,0,0,0,0,0,0,0,0,0,0,0,0,0,0,0,0,0,0,0,0,0,0,0,0,0,0,0,0,0,0,0,0,0,0,0,0,0,0.1592,0.1592,0,0.1601,0.1601,0.1601,0.1626,0.1626,0.1627,0.1627,0.1635,0.1635,0.1635,0,0,0,0,0,0,0,0,0,0,0,0,0,0.1594,0.1593,0.1592,0.1592,0.1592,0.1601,0.1601,0.1601,0.1626,0.1626,0.1627,0.1627,0.1636,0.1635,0.1635,0,0,0,0,0,0,0,0,0,0,0,0,0,0.1597,0.1593,0.1592,0.1605,0.1606,0.1601,0.1601,0.1601,0.1625,0.1626,0.1627,0.1628,0.1636,0.1635,0.1635,0.1617,0,0,0.1634,0.1633,0,0,0,0,0,0,0,0,0.1597,0.1597,0.1603,0.1604,0.1606,0.1613,0.1605,0.1606,0.1625,0.1618,0.1627,0.1628,0.1627,0.1628,0.1628,0.1617,0.1617,0.1634,0.1633,0.1633,0.1633,0,0,0,0,0,0,0,0.1596,0.1596,0.1595,0.1603,0.1605,0.161,0.1612,0.1605,0.1618,0.1619,0.1621,0.1621,0.1628,0.1628,0.1628,0.1618,0.1634,0.1633,0.1633,0.1633,0.1592,0.1592,0,0,0,0,0,0,0.1594,0.1596,0.1595,0.1596,0.1603,0.161,0.1611,0.161,0.1618,0.162,0.1621,0.1623,0.1628,0.1628,0.1628,0.1608,0.1633,0.1633,0.1633,0.1593,0.1592,0.1591,0,0,0,0,0,0,0.1594,0.1594,0.1595,0.1596,0.1597,0.1609,0.1607,0.161,0.1609,0.162,0.1622,0.1618,0.1629,0.1629,0.1619,0.1608,0.1633,0.1632,0.1594,0.1593,0.1592,0.1566,0,0,0,0,0,0,0.1594,0.1594,0.1587,0.1596,0.1597,0.1586,0.1606,0.1609,0.1609,0.1611,0.1618,0.162,0.1629,0.162,0.1619,0.1608,0.1632,0.1595,0.1594,0.1592,0.1568,0.1564,0.1561,0,0,0,0,0,0.1594,0.1579,0.1587,0.1587,0.1589,0.1585,0.1585,0.1597,0.1608,0.1601,0.1608,0.162,0.161,0.1619,0.1618,0.1607,0.1596,0.1594,0.1592,0.1569,0.1565,0.1561,0,0,0,0,0,0,0.1568,0.1581,0.1589,0.1577,0.158,0.1589,0.1581,0.1592,0.1591,0.1594,0.1608,0.1609,0.1598,0.1601,0.1611,0.159,0.1605,0.1603,0.1588,0.1583,0.158,0.1579,0.1632,0,0,0,0,0,0.1561,0.1558,0.1569,0.1557,0.1558,0.1569,0.1568,0.1577,0.158,0.1582,0.1588,0.159,0.1588,0.1586,0.1584,0.1568,0.157,0.156,0.1557,0.1554,0.1552,0.1544,0.1539,0.1585,0.1585,0.1585,0,0,0.1547,0.1553,0.155,0.1552,0.1555,0.1551,0.157,0.1565,0.1561,0.1581,0.1572,0.1577,0.158,0.1568,0.1563,0.1571,0.1539,0.1551,0.1549,0.1548,0.1541,0.1537,0.1533,0.1584,0.1584,0.1584,0,0,0.1518,0.1522,0.1513,0.1516,0.1521,0.1529,0.1526,0.1534,0.1538,0.153,0.1544,0.154,0.1536,0.1538,0.1538,0.151,0.1521,0.1509,0.149,0.1482,0.1479,0.1476,0.1465,0.1462,0.1507,0.1507,0.1507,0,0.1498,0.1493,0.1506,0.15,0.15,0.1518,0.1508,0.151,0.1514,0.1514,0.1523,0.1518,0.1521,0.151,0.1503,0.1503,0.15,0.1508,0.1478,0.1475,0.1473,0.1463,0.1459,0.1506,0.1506,0.1506,0.1506,0,0.1469,0.1465,0.1457,0.1461,0.146,0.1452,0.1464,0.1461,0.147,0.1477,0.1468,0.1473,0.1473,0.1471,0.1479,0.146,0.1465,0.1476,0.1491,0.1466,0.1458,0.1454,0.1503,0.1504,0.1504,0.1505,0,0,0.1424,0.1436,0.1432,0.1434,0.1441,0.1438,0.1431,0.1431,0.1429,0.1431,0.1425,0.142,0.1431,0.1431,0.144,0.1433,0.141,0.1445,0.1445,0.1438,0.1389,0.1381,0.1377,0.1417,0.1417,0.1416,0.1389,0,0.1396,0.1385,0.1397,0.1383,0.1379,0.1396,0.139,0.1393,0.1399,0.1396,0.1403,0.14,0.1413,0.1414,0.1408,0.1414,0.14,0.1416,0.1412,0.1411,0.141,0.1372,0.1363,0.1337,0.1386,0.1385,0.1385,0,0.1363,0.1364,0.135,0.1358,0.1357,0.1351,0.1352,0.1349,0.1353,0.1358,0.1359,0.1369,0.1363,0.1378,0.1368,0.1379,0.1377,0.138,0.138,0.1379,0.1396,0.1371,0.1329,0.1325,0.1379,0.138,0.138,0,0.1331,0.1329,0.132,0.1321,0.1331,0.1326,0.1329,0.1334,0.1334,0.1334,0.1334,0.1334,0.1334,0.1333,0.1343,0.1354,0.1332,0.1349,0.1336,0.1336,0.133,0.1331,0.1288,0.133,0.133,0.133,0.133,0,0.1299,0.1289,0.1306,0.1301,0.129,0.1304,0.1294,0.1299,0.1303,0.1299,0.1313,0.1308,0.1323,0.1319,0.1327,0.1318,0.1318,0.1321,0.1323,0.132,0.1319,0.1319,0.1321,0.1329,0.1329,0.1329,0.133,0,0.1261,0.1272,0.1264,0.1273,0.1276,0.1268,0.1276,0.1271,0.1278,0.1272,0.1272,0.1283,0.128,0.129,0.1289,0.1294,0.128,0.1286,0.1279,0.1281,0.1267,0.1268,0.1223,0.1217,0.1263,0.1262,0.1262,0,0.124,0.1233,0.1242,0.1241,0.1244,0.1241,0.124,0.1253,0.1252,0.1257,0.1251,0.1249,0.1249,0.1243,0.1251,0.125,0.1255,0.1239,0.1255,0.1251,0.1254,0.1255,0.1254,0.1236,0.1235,0.1235,0.1234,0,0.1201,0.1207,0.1206,0.1207,0.1206,0.1207,0.1209,0.1207,0.1221,0.1219,0.1216,0.1216,0.1215,0.1213,0.1214,0.1217,0.1228,0.1229,0.1226,0.1222,0.1219,0.122,0.127,0.123,0.1231,0.1231,0.1231,0.1231,0.1171,0.1166,0.1172,0.117,0.1173,0.1175,0.1171,0.1178,0.1176,0.1176,0.1184,0.118,0.1184,0.1186,0.1188,0.1185,0.1192,0.1188,0.1187,0.1186,0.1183,0.122,0.1185,0.1185,0.1185,0.1186,0.1186,0,0.1133,0.1137,0.1136,0.1139,0.1137,0.1148,0.1151,0.1149,0.1146,0.1149,0.1148,0.1145,0.1143,0.1151,0.115,0.1146,0.1151,0.1145,0.1146,0.1146,0.1177,0.1179,0.1141,0.1141,0.1141,0.1141,0.1141,0.1141,0.1112,0.1104,0.1111,0.1104,0.1109,0.1105,0.1106,0.1107,0.111,0.1106,0.1105,0.111,0.1115,0.1115,0.1114,0.1116,0.1115,0.1107,0.1111,0.114,0.1144,0.1148,0.1151,0.1107,0.1107,0.1081,0.1081,0.1081]},{"header":{"parameterUnit":"m.s-1","parameterCategory":1,"la1":30.2991,"la2":30.254,"lo1":-89.0895,"lo2":-89.0444,"dy":0.0017,"dx":0.0017,"nx":28,"ny":28,"refTime":"2023-09-23T03:00:00:Z","depth":0,"parameterNumber":3,"parameterNumberName":"V-component_of_WINDS"},"data":[0,0,0,0,0,0,0,0,0,0,0,0,0,0,0,0,0,0,0,0,0,0,0,0,0,0,0,0,0,0,0,0,0,0,0,0,0,0,0,0,0,0,0,0,0,0,0,0,0,0,0,0,0,0,0,0,0,0,-0.1735,-0.1736,0,-0.1842,-0.1844,-0.1845,-0.1924,-0.1925,-0.1925,-0.1926,-0.2036,-0.2038,-0.2041,0,0,0,0,0,0,0,0,0,0,0,0,0,-0.1599,-0.1601,-0.1735,-0.1736,-0.1738,-0.1842,-0.1844,-0.1845,-0.1924,-0.1925,-0.1926,-0.1926,-0.2035,-0.2038,-0.2041,0,0,0,0,0,0,0,0,0,0,0,0,0,-0.1677,-0.1602,-0.1735,-0.179,-0.1796,-0.1842,-0.1844,-0.1845,-0.1924,-0.1925,-0.1926,-0.1927,-0.2034,-0.2038,-0.2041,-0.2041,0,0,-0.2052,-0.2053,0,0,0,0,0,0,0,0,-0.1673,-0.1682,-0.178,-0.1786,-0.1793,-0.1871,-0.1836,-0.1911,-0.1924,-0.1875,-0.1926,-0.1927,-0.198,-0.1988,-0.2006,-0.2047,-0.2051,-0.2052,-0.2054,-0.2055,-0.2056,0,0,0,0,0,0,0,-0.1667,-0.1678,-0.1778,-0.1782,-0.1789,-0.1809,-0.1821,-0.1851,-0.1921,-0.1879,-0.1885,-0.1897,-0.1984,-0.2003,-0.2009,-0.2053,-0.2052,-0.2055,-0.2057,-0.2058,-0.2099,-0.2098,0,0,0,0,0,0,-0.1653,-0.1673,-0.1774,-0.1781,-0.1734,-0.1811,-0.1824,-0.1845,-0.192,-0.1933,-0.1896,-0.19,-0.1996,-0.2005,-0.2013,-0.2019,-0.2055,-0.2059,-0.2061,-0.21,-0.2099,-0.2098,0,0,0,0,0,0,-0.165,-0.1661,-0.177,-0.1729,-0.1744,-0.1812,-0.1834,-0.1846,-0.1865,-0.1933,-0.1946,-0.1902,-0.1997,-0.2009,-0.2034,-0.2024,-0.206,-0.2063,-0.2101,-0.21,-0.2098,-0.203,0,0,0,0,0,0,-0.1646,-0.166,-0.1661,-0.1728,-0.1746,-0.1788,-0.1834,-0.1848,-0.1871,-0.1877,-0.1942,-0.1954,-0.1999,-0.2028,-0.2037,-0.2029,-0.2066,-0.2103,-0.2101,-0.2099,-0.2033,-0.2026,-0.202,0,0,0,0,0,-0.164,-0.1637,-0.166,-0.1672,-0.1748,-0.1788,-0.1798,-0.185,-0.187,-0.1871,-0.1915,-0.1952,-0.2023,-0.203,-0.2041,-0.2034,-0.2103,-0.2101,-0.2099,-0.2036,-0.2028,-0.202,0,0,0,0,0,0,-0.1567,-0.1647,-0.1673,-0.1692,-0.1732,-0.1801,-0.1804,-0.1839,-0.1875,-0.1879,-0.1942,-0.1956,-0.1975,-0.2007,-0.2013,-0.2038,-0.2068,-0.2068,-0.2017,-0.2009,-0.2002,-0.1995,-0.2069,0,0,0,0,0,-0.1552,-0.1578,-0.1646,-0.1656,-0.1675,-0.1736,-0.1755,-0.1791,-0.1836,-0.1853,-0.1899,-0.1941,-0.1973,-0.1993,-0.2026,-0.2038,-0.2054,-0.2038,-0.2032,-0.2026,-0.2025,-0.2034,-0.2029,-0.2091,-0.2091,-0.2091,0,0,-0.1524,-0.157,-0.1583,-0.1642,-0.1678,-0.1703,-0.175,-0.1774,-0.1793,-0.1857,-0.1884,-0.1919,-0.197,-0.1988,-0.1999,-0.2016,-0.2012,-0.2023,-0.2018,-0.2021,-0.2032,-0.2026,-0.202,-0.2089,-0.209,-0.209,0,0,-0.1484,-0.1521,-0.1534,-0.1568,-0.1622,-0.1662,-0.1665,-0.1728,-0.1754,-0.1782,-0.183,-0.1854,-0.1908,-0.1942,-0.1966,-0.1939,-0.1975,-0.1948,-0.1914,-0.1922,-0.1917,-0.1913,-0.1903,-0.1899,-0.1947,-0.1947,-0.1946,0,-0.1441,-0.148,-0.1535,-0.1557,-0.1582,-0.1641,-0.1653,-0.1684,-0.1746,-0.1761,-0.1779,-0.1848,-0.1886,-0.1914,-0.1907,-0.1925,-0.193,-0.1941,-0.1913,-0.191,-0.1907,-0.1898,-0.1894,-0.1943,-0.1943,-0.1944,-0.1944,0,-0.1425,-0.1452,-0.1455,-0.1513,-0.1538,-0.1555,-0.1613,-0.1631,-0.1665,-0.1704,-0.1731,-0.1779,-0.1823,-0.1832,-0.1866,-0.1865,-0.1874,-0.1901,-0.1933,-0.1896,-0.1889,-0.1887,-0.1938,-0.1939,-0.194,-0.1941,0,0,-0.1343,-0.143,-0.1431,-0.1458,-0.1521,-0.1542,-0.1562,-0.1605,-0.162,-0.166,-0.1678,-0.1722,-0.1748,-0.1775,-0.1813,-0.182,-0.1795,-0.1847,-0.1849,-0.1836,-0.1797,-0.1776,-0.1772,-0.1819,-0.1819,-0.1818,-0.1793,0,-0.1313,-0.1351,-0.1401,-0.1423,-0.1448,-0.1504,-0.1521,-0.1561,-0.1598,-0.1624,-0.1665,-0.1695,-0.1727,-0.1744,-0.1753,-0.1796,-0.1788,-0.1799,-0.1837,-0.1837,-0.1823,-0.1768,-0.1746,-0.172,-0.1791,-0.179,-0.179,0,-0.1283,-0.1321,-0.1344,-0.1405,-0.1418,-0.1432,-0.1476,-0.15,-0.1547,-0.1573,-0.1604,-0.1644,-0.1668,-0.1695,-0.1728,-0.1734,-0.1753,-0.1776,-0.1776,-0.1782,-0.1812,-0.1773,-0.1713,-0.1709,-0.1786,-0.1787,-0.1787,0,-0.1221,-0.1277,-0.1299,-0.132,-0.1391,-0.14,-0.143,-0.1478,-0.1501,-0.1539,-0.1554,-0.1594,-0.1615,-0.1645,-0.1696,-0.1711,-0.1723,-0.1755,-0.1746,-0.1744,-0.1747,-0.1746,-0.1689,-0.1757,-0.1757,-0.1757,-0.1757,0,-0.1183,-0.1195,-0.1272,-0.1285,-0.1301,-0.1358,-0.1372,-0.1407,-0.1449,-0.147,-0.1521,-0.1539,-0.1604,-0.1631,-0.167,-0.1692,-0.1701,-0.1723,-0.1733,-0.1719,-0.1716,-0.1732,-0.1735,-0.1756,-0.1757,-0.1757,-0.1757,0,-0.1116,-0.1168,-0.1195,-0.126,-0.1277,-0.1286,-0.1342,-0.1357,-0.1396,-0.1422,-0.1431,-0.1493,-0.1526,-0.1579,-0.1628,-0.1655,-0.167,-0.1687,-0.1654,-0.166,-0.1648,-0.1649,-0.16,-0.1597,-0.1666,-0.1665,-0.1665,0,-0.1089,-0.11,-0.1166,-0.1184,-0.1212,-0.124,-0.1264,-0.132,-0.1342,-0.1396,-0.1404,-0.1442,-0.1475,-0.1526,-0.1575,-0.1613,-0.1632,-0.1612,-0.1638,-0.1623,-0.1632,-0.1631,-0.1632,-0.1606,-0.1605,-0.1604,-0.1604,0,-0.1035,-0.106,-0.1091,-0.1131,-0.1158,-0.1192,-0.1229,-0.1241,-0.1305,-0.1327,-0.1362,-0.1388,-0.1438,-0.1475,-0.1519,-0.1551,-0.1588,-0.1595,-0.1595,-0.1581,-0.1561,-0.1572,-0.1638,-0.1596,-0.1597,-0.1597,-0.1598,-0.1598,-0.0988,-0.1,-0.1048,-0.1082,-0.1115,-0.1149,-0.1166,-0.1207,-0.1237,-0.1283,-0.1314,-0.1347,-0.1394,-0.1457,-0.1486,-0.1513,-0.1529,-0.1529,-0.1529,-0.1528,-0.1523,-0.1556,-0.1521,-0.1522,-0.1522,-0.1522,-0.1522,0,-0.0936,-0.097,-0.1,-0.1051,-0.1077,-0.1109,-0.1152,-0.1171,-0.12,-0.124,-0.1271,-0.1311,-0.1347,-0.1399,-0.1438,-0.145,-0.1468,-0.1458,-0.1458,-0.1465,-0.1506,-0.1503,-0.1443,-0.1443,-0.1443,-0.1443,-0.1443,-0.1443,-0.0913,-0.0936,-0.0966,-0.1006,-0.104,-0.1073,-0.1094,-0.1125,-0.1158,-0.12,-0.123,-0.1263,-0.1308,-0.1351,-0.1385,-0.14,-0.1412,-0.1397,-0.1417,-0.1455,-0.1462,-0.1469,-0.1466,-0.1399,-0.1399,-0.1373,-0.1373,-0.1373]}]]